CW5255 Weather Reports


Display with metric or nautical units.
time (UTC)temp
F
wind
direction
speed
MPH
gust
MPH
rain 1hr
in
rain 24hr
in
rain mn
in
humidity
%
barometer
mb
20200227105045 32 351 19.0 20.0 0.00 0.45 0.01 70 1004.8
20200227104545 32 5 3.0 20.0 0.00 0.45 0.01 69 1004.9
20200227104045 33 281 4.0 20.0 0.00 0.45 0.01 69 1004.7
20200227103545 33 39 9.0 22.0 0.00 0.45 0.01 69 1004.7
20200227103044 33 281 4.0 22.0 0.00 0.45 0.01 69 1004.8
20200227102545 33 223 3.0 25.0 0.00 0.45 0.01 70 1004.7
20200227102044 33 49 3.0 25.0 0.00 0.45 0.01 72 1004.6
20200227101544 33 313 5.0 17.0 0.00 0.45 0.01 73 1004.5
20200227101043 33 5 8.0 17.0 0.00 0.45 0.01 74 1004.5
20200227100543 33 270 3.0 22.0 0.00 0.45 0.01 75 1004.7
20200227100114 34 234 4.0 22.0 0.00 0.45 0.01 75 1004.6
20200227095543 34 258 4.0 15.0 0.00 0.45 0.01 77 1004.7
20200227095043 34 300 5.0 21.0 0.00 0.45 0.01 77 1004.7
20200227094613 34 215 2.0 32.0 0.00 0.45 0.01 76 1004.6
20200227094044 34 286 3.0 32.0 0.00 0.45 0.01 73 1003.9
20200227093615 35 321 23.0 23.0 0.00 0.45 0.01 71 1003.9
20200227093042 35 88 5.0 23.0 0.00 0.45 0.01 69 1003.7
20200227092542 35 153 5.0 23.0 0.00 0.45 0.01 68 1003.7
20200227092112 35 277 4.0 24.0 0.00 0.45 0.01 68 1003.4
20200227091542 35 284 2.0 24.0 0.00 0.45 0.01 67 1003.2
20200227091042 35 11 7.0 20.0 0.00 0.45 0.01 68 1003.1
20200227090612 35 164 5.0 18.0 0.00 0.45 0.01 68 1003.1
20200227090112 35 284 17.0 27.0 0.00 0.45 0.01 68 1002.7
20200227085541 35 290 15.0 27.0 0.00 0.45 0.01 70 1003.2
20200227085111 36 205 2.0 25.0 0.00 0.45 0.01 71 1003.2
20200227084611 36 134 7.0 17.0 0.00 0.45 0.01 71 1003.4
20200227084111 36 304 9.0 17.0 0.00 0.45 0.01 71 1003.4
20200227083541 36 262 2.0 14.0 0.00 0.45 0.01 71 1003.0
20200227083111 36 234 5.0 14.0 0.00 0.45 0.01 71 1003.4
20200227082611 36 305 8.0 23.0 0.00 0.45 0.01 70 1003.3
20200227082110 36 279 3.0 23.0 0.00 0.45 0.01 70 1003.3
20200227081541 37 286 10.0 17.0 0.00 0.45 0.01 70 1003.2
20200227081110 37 311 1.0 17.0 0.00 0.45 0.01 70 1003.2
20200227080610 37 207 8.0 14.0 0.00 0.45 0.01 71 1003.2
20200227080139 37 35 13.0 14.0 0.00 0.45 0.01 71 1003.1
20200227075610 37 323 1.0 14.0 0.00 0.45 0.01 72 1003.0
20200227075110 37 262 7.0 14.0 0.00 0.45 0.01 73 1003.1
20200227074539 37 194 3.0 12.0 0.00 0.45 0.01 72 1003.0
20200227074040 37 294 2.0 18.0 0.00 0.45 0.01 72 1003.3
20200227073539 37 324 2.0 19.0 0.00 0.45 0.01 71 1003.2
20200227073109 37 264 8.0 19.0 0.00 0.45 0.01 72 1003.3
20200227072608 37 301 4.0 16.0 0.00 0.45 0.01 73 1003.3
20200227072108 37 192 3.0 17.0 0.00 0.45 0.01 73 1003.3
20200227071608 37 343 15.0 17.0 0.00 0.45 0.01 75 1003.2
20200227071108 38 229 4.0 15.0 0.00 0.45 0.01 75 1002.9
20200227070608 38 271 9.0 15.0 0.00 0.45 0.01 76 1003.1
20200227070108 38 77 2.0 18.0 0.00 0.45 0.01 76 1003.3
20200227065608 38 287 11.0 18.0 0.00 0.45 0.01 75 1003.4
20200227065108 38 355 3.0 18.0 0.00 0.45 0.01 75 1003.6
20200227064608 38 238 8.0 18.0 0.00 0.45 0.01 76 1003.3
20200227064107 38 171 2.0 12.0 0.00 0.45 0.01 77 1003.1
20200227063607 38 299 5.0 13.0 0.00 0.45 0.01 77 1003.0
20200227063107 38 213 4.0 18.0 0.00 0.45 0.01 77 1002.4
20200227062607 38 329 5.0 18.0 0.00 0.45 0.01 77 1002.1
20200227062107 38 249 10.0 17.0 0.00 0.45 0.01 78 1002.0
20200227061607 38 273 12.0 21.0 0.01 0.45 0.01 78 1002.3
20200227061106 38 247 4.0 21.0 0.01 0.45 0.01 79 1002.3
20200227060606 38 90 9.0 17.0 0.01 0.45 0.01 80 1002.4
20200227060107 38 232 2.0 17.0 0.01 0.45 0.01 80 1002.4
20200227055606 38 240 2.0 22.0 0.01 0.45 0.01 81 1002.2
20200227055106 38 262 11.0 22.0 0.02 0.45 0.01 82 1002.0
20200227054606 38 333 3.0 24.0 0.02 0.45 0.01 83 1002.2
20200227054105 38 163 6.0 24.0 0.02 0.45 0.01 85 1002.4
20200227053605 38 259 18.0 24.0 0.02 0.45 0.01 86 1002.4
20200227053105 38 344 8.0 15.0 0.02 0.45 0.01 87 1002.6
20200227052605 39 144 4.0 18.0 0.02 0.45 0.01 88 1002.6
20200227052105 39 17 8.0 18.0 0.02 0.45 0.01 89 1002.5
20200227051604 39 57 4.0 16.0 0.02 0.44 0.00 89 1002.4
20200227051105 39 344 6.0 15.0 0.03 0.44 0.00 89 1002.3
20200227050605 39 355 2.0 15.0 0.05 0.44 0.00 89 1002.5
20200227050104 40 328 6.0 13.0 0.06 0.44 0.00 90 1002.7
20200227045604 40 238 2.0 13.0 0.06 0.44 0.44 90 1003.0
20200227045104 40 344 10.0 12.0 0.06 0.43 0.43 90 1003.1
20200227044604 40 217 2.0 10.0 0.07 0.43 0.43 90 1003.3
20200227044104 40 288 4.0 10.0 0.07 0.43 0.43 90 1003.2
20200227043604 40 287 4.0 10.0 0.08 0.43 0.43 90 1003.5
20200227043103 40 180 4.0 24.0 0.10 0.43 0.43 90 1003.1
20200227042604 40 221 7.0 24.0 0.11 0.43 0.43 90 1003.1
20200227042103 40 22 5.0 21.0 0.12 0.43 0.43 90 1002.8
20200227041603 40 302 5.0 17.0 0.12 0.42 0.42 90 1002.9
20200227041103 41 38 3.0 18.0 0.12 0.41 0.41 90 1002.1
20200227040604 41 302 5.0 19.0 0.10 0.39 0.39 90 1002.1
20200227040103 41 298 2.0 19.0 0.10 0.38 0.38 90 1002.2
20200227035602 41 259 3.0 16.0 0.11 0.38 0.38 90 1002.3
20200227035102 42 53 1.0 15.0 0.13 0.37 0.37 90 1002.6
20200227034602 42 314 8.0 15.0 0.15 0.36 0.36 90 1003.1
20200227034102 42 337 5.0 11.0 0.19 0.36 0.36 90 1003.2
20200227033602 42 282 1.0 12.0 0.21 0.35 0.35 91 1003.5
20200227033102 42 355 6.0 14.0 0.23 0.33 0.33 91 1002.4
20200227032602 42 323 9.0 14.0 0.25 0.32 0.32 90 1001.7
20200227032101 42 127 2.0 31.0 0.26 0.31 0.31 91 1001.6
20200227031601 43 360 12.0 31.0 0.26 0.30 0.30 90 1001.3
20200227031101 43 20 5.0 17.0 0.26 0.29 0.29 91 1001.9
20200227030600 43 245 3.0 17.0 0.27 0.29 0.29 91 1001.9
20200227030130 43 42 17.0 17.0 0.26 0.28 0.28 91 1001.9
20200227025600 43 182 2.0 15.0 0.25 0.27 0.27 91 1001.8
20200227025100 43 276 0.0 11.0 0.22 0.24 0.24 91 1002.0
20200227024559 43 112 3.0 11.0 0.19 0.21 0.21 91 1002.1
20200227024100 43 286 3.0 11.0 0.15 0.17 0.17 91 1002.0
20200227023559 44 5 3.0 11.0 0.12 0.14 0.14 90 1002.6
20200227023059 45 178 1.0 14.0 0.09 0.10 0.10 90 1003.1
20200227022559 47 311 9.0 19.0 0.06 0.07 0.07 90 1003.0
20200227022059 48 338 5.0 19.0 0.04 0.05 0.05 92 1002.6
20200227021600 49 355 2.0 6.0 0.03 0.04 0.04 94 1002.6
20200227021059 49 219 2.0 7.0 0.02 0.03 0.03 94 1001.4
20200227020558 49 150 0.0 7.0 0.01 0.02 0.02 94 1001.2
20200227020059 49 160 1.0 11.0 0.01 0.02 0.02 94 1001.3
20200227015558 49 147 4.0 11.0 0.01 0.02 0.02 94 1001.3
20200227015058 49 116 3.0 9.0 0.01 0.02 0.02 94 1001.4
20200227014558 49 127 1.0 9.0 0.01 0.02 0.02 94 1001.1
20200227014058 49 121 1.0 9.0 0.01 0.02 0.02 94 1001.2
20200227013558 49 113 9.0 9.0 0.01 0.02 0.02 94 1001.3
20200227013057 49 178 2.0 9.0 0.00 0.01 0.01 94 1001.4
20200227012559 49 180 3.0 10.0 0.00 0.01 0.01 94 1001.8
20200227012057 49 109 4.0 10.0 0.00 0.01 0.01 94 1002.1
20200227011600 49 98 6.0 9.0 0.00 0.01 0.01 94 1002.3
20200227011057 49 164 5.0 12.0 0.00 0.01 0.01 94 1002.5
20200227010556 49 157 9.0 12.0 0.00 0.01 0.01 93 1002.6
20200227010056 49 101 9.0 10.0 0.00 0.01 0.01 93 1002.7
20200227005556 49 138 5.0 11.0 0.00 0.01 0.01 93 1002.8
20200227005056 49 173 9.0 11.0 0.00 0.01 0.01 93 1002.8
20200227004557 49 118 1.0 9.0 0.00 0.01 0.01 93 1002.8
20200227004056 49 203 1.0 12.0 0.00 0.01 0.01 93 1002.7
20200227003555 49 153 4.0 12.0 0.00 0.01 0.01 93 1002.9
20200227003130 49 159 5.0 12.0 0.00 0.01 0.01 93 1003.3
20200227002555 49 122 7.0 13.0 0.00 0.01 0.01 93 1003.3
20200227002054 49 161 9.0 13.0 0.00 0.01 0.01 93 1003.5
20200227001558 50 150 13.0 13.0 0.00 0.01 0.01 93 1003.4
20200227001054 50 153 3.0 15.0 0.00 0.01 0.01 92 1003.6
20200227000555 50 160 8.0 15.0 0.00 0.01 0.01 92 1003.6
20200227000124 50 144 9.0 16.0 0.00 0.01 0.01 92 1003.6
20200226235554 50 159 0.0 16.0 0.00 0.01 0.01 92 1003.6
20200226235053 50 186 14.0 17.0 0.00 0.01 0.01 92 1003.6
20200226234553 50 160 4.0 17.0 0.00 0.01 0.01 92 1003.7
20200226234053 50 131 7.0 14.0 0.00 0.01 0.01 92 1003.7
20200226233552 50 141 2.0 14.0 0.00 0.01 0.01 92 1003.7
20200226233053 50 159 7.0 16.0 0.00 0.01 0.01 91 1004.0
20200226232553 50 165 9.0 16.0 0.00 0.01 0.01 91 1004.2
20200226232052 50 144 6.0 14.0 0.00 0.01 0.01 92 1004.3
20200226231552 50 155 4.0 14.0 0.00 0.01 0.01 91 1004.3
20200226231052 50 144 8.0 13.0 0.00 0.01 0.01 91 1004.6
20200226230553 50 186 2.0 11.0 0.00 0.01 0.01 91 1004.7
20200226230053 50 144 4.0 11.0 0.00 0.01 0.01 91 1004.7
20200226225552 50 148 2.0 15.0 0.00 0.01 0.01 91 1004.7
20200226225053 50 142 3.0 15.0 0.00 0.01 0.01 91 1004.8
20200226224551 50 110 2.0 15.0 0.00 0.01 0.01 91 1004.8
20200226224053 51 138 12.0 15.0 0.00 0.01 0.01 91 1005.0
20200226223551 51 136 11.0 14.0 0.00 0.01 0.01 91 1005.1
20200226223051 51 155 2.0 12.0 0.00 0.01 0.01 91 1005.1
20200226222551 51 148 9.0 13.0 0.00 0.01 0.01 91 1005.4
20200226222052 51 147 2.0 13.0 0.00 0.01 0.01 90 1005.3
20200226221551 51 130 4.0 10.0 0.00 0.01 0.01 90 1005.4
20200226221051 51 144 10.0 12.0 0.00 0.01 0.01 90 1005.4
20200226220551 51 175 2.0 12.0 0.00 0.01 0.01 89 1005.4
20200226220050 52 118 6.0 17.0 0.00 0.01 0.01 89 1005.7
20200226215550 52 111 12.0 17.0 0.00 0.01 0.01 89 1006.1
20200226215051 52 155 9.0 10.0 0.00 0.01 0.01 88 1006.2
20200226214550 52 163 4.0 9.0 0.00 0.01 0.01 88 1006.4
20200226214050 52 171 0.0 9.0 0.00 0.01 0.01 88 1006.4
20200226213549 52 175 3.0 9.0 0.00 0.01 0.01 88 1006.5
20200226213050 52 160 5.0 9.0 0.00 0.01 0.01 88 1006.5
20200226212551 52 134 3.0 9.0 0.00 0.01 0.01 88 1006.6
20200226212049 52 166 9.0 13.0 0.00 0.01 0.01 88 1006.7
20200226211550 52 119 2.0 13.0 0.00 0.01 0.01 88 1006.7
20200226211050 52 169 6.0 10.0 0.00 0.01 0.01 88 1006.7
20200226210547 52 116 6.0 9.0 0.00 0.01 0.01 88 1006.8
20200226210118 52 159 4.0 10.0 0.00 0.01 0.01 88 1006.8
20200226205548 52 117 7.0 10.0 0.00 0.01 0.01 88 1007.1
20200226205047 52 113 3.0 8.0 0.00 0.01 0.01 88 1007.0
20200226204617 52 130 3.0 7.0 0.00 0.01 0.01 88 1007.1
20200226204117 52 149 1.0 11.0 0.00 0.01 0.01 88 1007.1
20200226203547 52 161 6.0 11.0 0.00 0.01 0.01 89 1007.4
20200226203047 52 133 2.0 14.0 0.00 0.01 0.01 89 1007.4
20200226202547 52 158 9.0 14.0 0.00 0.01 0.01 88 1007.5
20200226202047 52 123 2.0 10.0 0.00 0.01 0.01 88 1007.6
20200226201547 52 142 2.0 11.0 0.00 0.01 0.01 88 1007.7
20200226201046 52 139 2.0 12.0 0.00 0.01 0.01 89 1007.8
20200226200547 51 133 5.0 12.0 0.00 0.01 0.01 89 1008.0
20200226200046 51 132 4.0 11.0 0.00 0.01 0.01 89 1008.1
20200226195546 51 183 5.0 11.0 0.00 0.01 0.01 89 1008.2
20200226195045 51 181 2.0 11.0 0.00 0.01 0.01 89 1008.5
20200226194546 51 136 2.0 10.0 0.00 0.01 0.01 89 1008.5
20200226194045 51 157 6.0 9.0 0.00 0.01 0.01 89 1008.6
20200226193545 51 156 5.0 9.0 0.00 0.01 0.01 90 1008.7
20200226193045 51 156 1.0 9.0 0.00 0.01 0.01 90 1008.6
20200226192545 51 174 2.0 8.0 0.00 0.01 0.01 90 1008.7
20200226192045 51 180 3.0 9.0 0.00 0.01 0.01 90 1008.8
20200226191544 51 155 1.0 9.0 0.00 0.01 0.01 90 1008.8
20200226191045 51 163 5.0 9.0 0.00 0.01 0.01 90 1009.1
20200226190545 51 180 5.0 8.0 0.00 0.01 0.01 90 1009.1
20200226190114 51 159 6.0 9.0 0.00 0.01 0.01 90 1009.1
20200226185614 51 155 7.0 12.0 0.00 0.01 0.01 90 1009.1
20200226185044 51 113 3.0 12.0 0.00 0.01 0.01 90 1009.3
20200226184614 51 140 8.0 11.0 0.00 0.01 0.01 90 1009.5
20200226184043 51 132 4.0 10.0 0.00 0.01 0.01 90 1009.5
20200226183613 51 182 7.0 10.0 0.00 0.01 0.01 90 1009.6
20200226183113 51 161 4.0 6.0 0.00 0.01 0.01 90 1009.7
20200226182543 50 157 0.0 7.0 0.00 0.01 0.01 90 1009.8
20200226182113 50 143 5.0 7.0 0.00 0.01 0.01 91 1009.9
20200226181613 50 122 2.0 7.0 0.00 0.01 0.01 90 1009.9
20200226181043 50 148 3.0 7.0 0.00 0.01 0.01 91 1010.1
20200226180542 50 148 3.0 7.0 0.00 0.01 0.01 91 1010.2
20200226180112 50 213 4.0 7.0 0.00 0.01 0.01 91 1010.5
20200226175612 50 182 0.0 7.0 0.00 0.01 0.01 92 1010.7
20200226175112 50 198 2.0 7.0 0.00 0.01 0.01 92 1010.8
20200226174542 49 155 6.0 6.0 0.00 0.01 0.01 93 1010.8
20200226174112 49 207 5.0 6.0 0.00 0.01 0.01 93 1011.0
20200226173541 49 223 5.0 6.0 0.00 0.01 0.01 93 1011.1
20200226173111 49 150 1.0 7.0 0.00 0.01 0.01 93 1011.3
20200226172612 49 132 5.0 7.0 0.00 0.01 0.01 94 1011.4
20200226172041 49 146 1.0 7.0 0.00 0.01 0.01 94 1011.4
20200226171612 49 106 2.0 5.0 0.00 0.01 0.01 94 1011.5
20200226171042 49 146 2.0 7.0 0.00 0.01 0.01 94 1011.6
20200226170541 48 146 3.0 7.0 0.00 0.01 0.01 94 1011.7
20200226170111 48 133 4.0 9.0 0.00 0.01 0.01 94 1011.8
20200226165540 48 205 3.0 9.0 0.00 0.01 0.01 95 1011.9
20200226165110 48 199 0.0 6.0 0.00 0.01 0.01 95 1012.0
20200226164611 48 198 2.0 6.0 0.00 0.01 0.01 95 1012.1
20200226164110 48 214 3.0 5.0 0.00 0.01 0.01 95 1012.2
20200226163610 48 138 1.0 6.0 0.00 0.01 0.01 95 1012.2
20200226163110 48 151 2.0 6.0 0.00 0.01 0.01 95 1012.3
20200226162610 48 182 3.0 5.0 0.00 0.01 0.01 95 1012.3
20200226162109 48 218 3.0 5.0 0.00 0.01 0.01 95 1012.4
20200226161609 48 194 1.0 5.0 0.00 0.01 0.01 95 1012.5
20200226161109 48 170 0.0 4.0 0.00 0.01 0.01 95 1012.6
20200226160609 48 171 2.0 4.0 0.00 0.01 0.01 95 1012.5
20200226160109 48 158 2.0 5.0 0.00 0.01 0.01 95 1012.5
20200226155609 48 186 3.0 5.0 0.00 0.01 0.01 95 1012.5
20200226155108 47 193 0.0 4.0 0.00 0.01 0.01 95 1012.6
20200226154609 47 219 0.0 4.0 0.00 0.01 0.01 95 1012.6
20200226154108 47 190 2.0 3.0 0.00 0.01 0.01 95 1012.6
20200226153607 47 190 2.0 5.0 0.00 0.01 0.01 95 1012.6
20200226153108 47 190 3.0 5.0 0.00 0.01 0.01 95 1012.6
20200226152607 47 182 3.0 7.0 0.00 0.01 0.01 95 1012.7
20200226152107 47 188 4.0 7.0 0.00 0.01 0.01 95 1012.8
20200226151607 47 217 4.0 7.0 0.00 0.01 0.01 95 1012.8
20200226151107 47 184 0.0 5.0 0.00 0.01 0.01 95 1013.0
20200226150607 47 161 4.0 6.0 0.00 0.01 0.01 95 1012.9
20200226150107 47 191 2.0 7.0 0.00 0.01 0.01 95 1012.9
20200226145610 47 196 6.0 9.0 0.00 0.01 0.01 95 1013.1
20200226145106 47 194 3.0 9.0 0.00 0.01 0.01 95 1013.2
20200226144607 47 153 3.0 9.0 0.00 0.01 0.01 95 1013.1
20200226144106 47 160 0.0 8.0 0.00 0.01 0.01 95 1013.0
20200226143607 47 157 1.0 8.0 0.00 0.01 0.01 95 1013.0
20200226143106 47 200 4.0 7.0 0.00 0.01 0.01 95 1013.2
20200226142606 47 198 4.0 7.0 0.00 0.01 0.01 95 1013.2
20200226142106 47 236 1.0 5.0 0.00 0.01 0.01 95 1013.4
20200226141606 47 205 1.0 5.0 0.00 0.01 0.01 95 1013.5
20200226141106 46 218 3.0 5.0 0.00 0.01 0.01 95 1013.4
20200226140605 46 213 2.0 4.0 0.00 0.01 0.01 95 1013.5
20200226140107 46 227 0.0 4.0 0.00 0.01 0.01 95 1013.6
20200226135605 46 186 1.0 3.0 0.00 0.01 0.01 95 1013.7
20200226135105 46 190 1.0 5.0 0.00 0.01 0.01 95 1013.6
20200226134605 46 191 1.0 5.0 0.00 0.01 0.01 95 1013.6
20200226134105 46 205 5.0 6.0 0.00 0.01 0.01 95 1013.5
20200226133604 46 196 5.0 6.0 0.00 0.01 0.01 95 1013.5
20200226133104 46 213 3.0 3.0 0.00 0.01 0.01 95 1013.5
20200226132604 46 217 0.0 1.0 0.00 0.01 0.01 95 1013.5
20200226132104 46 217 0.0 1.0 0.00 0.01 0.01 95 1013.5
20200226131604 46 217 0.0 1.0 0.00 0.01 0.01 95 1013.4
20200226131106 45 217 0.0 1.0 0.00 0.01 0.01 95 1013.4
20200226130604 45 217 1.0 1.0 0.00 0.01 0.01 95 1013.3
20200226130105 45 217 0.0 1.0 0.00 0.01 0.01 95 1013.3
20200226125604 45 217 0.0 3.0 0.01 0.01 0.01 95 1013.4
20200226125105 45 217 0.0 4.0 0.01 0.01 0.01 95 1013.4
20200226124604 45 224 3.0 5.0 0.01 0.01 0.01 95 1013.2
20200226124104 45 215 1.0 6.0 0.01 0.01 0.01 95 1013.2
20200226123605 45 249 5.0 6.0 0.01 0.01 0.01 95 1013.1
20200226123103 45 202 0.0 3.0 0.01 0.01 0.01 95 1013.1
20200226122603 45 197 3.0 3.0 0.01 0.01 0.01 95 1012.9
20200226122103 45 197 0.0 4.0 0.01 0.01 0.01 95 1012.7
20200226121603 45 198 2.0 4.0 0.01 0.01 0.01 95 1012.5
20200226121106 45 219 1.0 3.0 0.01 0.01 0.01 95 1012.3
20200226120603 45 200 0.0 5.0 0.01 0.01 0.01 95 1012.4
20200226120104 45 198 3.0 5.0 0.01 0.01 0.01 95 1012.2
20200226115604 45 214 3.0 5.0 0.00 0.00 0.00 95 1012.2
20200226115103 45 222 4.0 5.0 0.00 0.00 0.00 95 1012.2
20200226114603 45 211 4.0 6.0 0.00 0.00 0.00 94 1012.2
20200226114104 45 211 4.0 6.0 0.00 0.00 0.00 94 1012.2
20200226113602 45 236 2.0 4.0 0.00 0.00 0.00 94 1012.1
20200226113101 45 236 3.0 4.0 0.00 0.00 0.00 94 1012.0
20200226112601 45 242 2.0 4.0 0.00 0.00 0.00 94 1012.0
20200226112102 45 207 1.0 4.0 0.00 0.01 0.00 94 1011.9
20200226111603 45 241 2.0 4.0 0.00 0.01 0.00 94 1011.8
20200226111103 45 242 1.0 4.0 0.00 0.01 0.00 94 1011.9
20200226110601 45 235 0.0 4.0 0.00 0.02 0.00 94 1011.9
20200226110100 46 216 1.0 4.0 0.00 0.02 0.00 94 1012.1
20200226105600 46 203 0.0 2.0 0.00 0.03 0.00 94 1012.1